Lid_Strength_Index
12 12 12 11 10 10 9 8 9 11 10 8 6 3 2 1 1 -0 0 3 6 7 7 6 5 3 3 3 3 2 2 1 1 1 1 0 0 -0
12 12 13 12 12 12 10 9 9 9 11 8 7 6 5 3 2 2 -0 2 4 8 8 7 6 4 4 4 4 3 3 3 2 1 1 1 0 0
14 13 13 13 14 13 12 11 11 10 11 8 6 5 5 5 4 2 2 1 0 4 6 8 8 7 6 5 5 4 4 4 4 3 2 1 1 0
16 15 15 14 14 13 12 11 11 10 10 10 8 7 6 5 4 4 3 1 1 2 6 7 8 8 8 8 7 7 6 5 6 5 4 3 2 1
16 16 16 15 15 14 13 13 13 12 12 10 9 7 6 5 5 4 4 2 0 2 6 7 8 8 8 8 8 8 8 8 7 7 7 7 5 4
16 16 16 15 15 15 14 14 14 14 13 11 10 8 7 7 9 8 10 7 6 2 4 6 6 8 9 8 8 9 9 8 8 8 8 9 9 8
17 17 16 15 15 15 15 15 15 15 14 14 12 12 13 13 13 11 11 9 6 9 7 3 4 5 7 9 7 8 9 9 9 8 8 9 9 9
18 18 17 16 16 16 15 15 16 16 16 16 15 16 15 14 13 13 12 9 6 10 12 6 6 8 9 11 11 10 9 9 10 9 9 9 9 9
19 19 17 17 16 17 17 17 17 16 15 16 17 16 16 15 14 14 14 12 10 14 13 11 12 13 12 12 11 11 11 12 10 10 10 10 11 10
19 19 19 18 17 17 18 18 19 19 18 17 17 17 16 15 14 13 13 13 13 13 14 16 13 13 14 14 12 12 12 12 12 12 11 11 10 11
18 18 18 17 15 15 18 20 19 19 17 16 16 16 16 16 15 15 15 15 16 15 14 15 13 13 14 15 15 13 12 13 13 13 13 13 12 11
18 17 14 15 15 14 18 19 21 20 19 19 19 18 17 17 16 17 16 18 17 17 15 16 15 15 14 14 14 15 15 13 13 13 13 13 13 13
18 18 16 14 14 15 15 18 18 18 19 20 20 19 18 18 18 17 18 16 17 18 16 15 15 15 15 14 14 14 15 16 15 15 14 14 13 14
18 17 17 15 15 15 17 16 16 19 19 20 20 20 20 20 19 19 18 17 16 17 15 16 16 16 16 16 16 15 15 15 15 15 15 15 15 15
17 17 16 16 17 17 16 17 19 19 20 21 21 21 20 19 19 19 19 18 18 17 18 18 17 16 16 17 17 16 16 15 14 15 15 15 16 16
19 20 20 18 20 20 20 19 20 20 21 21 21 20 19 19 20 19 20 20 20 20 19 19 19 18 17 17 17 18 17 17 15 14 15 15 15 15
20 20 21 22 22 22 22 21 21 21 21 21 22 21 21 20 20 20 20 20 21 21 22 20 19 19 19 19 19 18 18 18 17 15 16 16 16 16
21 23 24 24 23 23 23 23 22 22 22 21 22 22 21 21 21 21 21 21 22 21 21 21 21 21 20 19 17 19 20 20 18 17 17 17 18 17
22 23 25 25 24 23 23 23 24 23 22 23 24 23 23 21 21 21 22 22 22 22 21 21 21 21 23 24 20 15 17 19 19 19 18 18 20 19
23 24 25 25 25 24 24 24 24 25 25 25 25 25 25 23 22 22 22 23 22 22 22 21 22 22 22 22 21 18 15 16 19 19 19 19 18 16
24 24 25 25 25 25 25 26 26 27 27 27 26 26 26 25 23 22 22 23 23 22 23 23 22 20 19 18 21 21 19 15 15 17 18 20 20 19
25 24 25 25 27 27 26 29 26 28 28 27 27 27 28 26 25 24 23 24 23 23 23 22 21 20 21 21 23 23 21 19 16 14 14 16 19 21
30 26 27 30 27 28 26 27 28 29 28 28 28 28 29 28 26 25 23 23 22 23 23 24 23 22 22 22 23 23 22 22 20 19 15 13 13 13